UK-DMC 2

Last updated on Mon Jun 22 2026 00:02:57 GMT+0000 (Coordinated Universal Time)

1 35683U 09041C 26172.49659550 .00000599 00000+0 94050-4 0 9994 2 35683 97.8847 307.3578 0001132 87.2255 272.9085 14.76041616907206
UTC large
Height (km)
Speed (km/s)
/
Latitude / Longitude
Inclination (degrees)
Orbital Period (minutes)
Azimuth
Elevation
Range (km)
Doppler Factor

Next 0 passes for location: London (51.5072 / 0.1276)

No passes found over London.
UK-DMC 2